TimeCDT,TemperatureF,Dew PointF,Humidity,Sea Level PressureIn,VisibilityMPH,Wind Direction,Wind SpeedMPH,Gust SpeedMPH,PrecipitationIn,Events,Conditions,WindDirDegrees,DateUTC
12:15 AM,37.0,29.7,75,30.41,10.0,NW,5.8,-,N/A,,Clear,320,2013-05-03 05:15:00
12:35 AM,36.7,29.3,75,30.40,10.0,NNW,6.9,-,N/A,,Clear,330,2013-05-03 05:35:00
12:55 AM,37.6,28.8,70,30.39,10.0,NNW,8.1,-,N/A,,Clear,340,2013-05-03 05:55:00
1:15 AM,36.7,28.4,72,30.39,10.0,NNW,6.9,-,N/A,,Clear,330,2013-05-03 06:15:00
1:35 AM,36.3,28.2,72,30.38,10.0,NNW,5.8,-,N/A,,Clear,330,2013-05-03 06:35:00
1:55 AM,36.0,28.2,73,30.38,10.0,NNW,5.8,-,N/A,,Clear,330,2013-05-03 06:55:00
2:15 AM,35.4,28.0,75,30.37,10.0,NNW,5.8,-,N/A,,Clear,330,2013-05-03 07:15:00
2:35 AM,35.4,27.7,73,30.36,10.0,NNW,5.8,-,N/A,,Clear,330,2013-05-03 07:35:00
2:55 AM,34.7,27.5,75,30.36,10.0,NW,5.8,-,N/A,,Clear,320,2013-05-03 07:55:00
3:15 AM,34.7,27.5,75,30.36,10.0,NW,5.8,-,N/A,,Clear,320,2013-05-03 08:15:00
3:35 AM,34.0,27.5,77,30.35,10.0,NW,5.8,-,N/A,,Clear,320,2013-05-03 08:35:00
3:55 AM,34.0,27.5,77,30.35,10.0,NW,5.8,-,N/A,,Clear,320,2013-05-03 08:55:00
4:15 AM,33.8,27.1,77,30.34,10.0,NW,4.6,-,N/A,,Clear,320,2013-05-03 09:15:00
4:35 AM,33.8,27.0,76,30.34,10.0,NW,5.8,-,N/A,,Clear,320,2013-05-03 09:35:00
4:55 AM,33.6,27.0,77,30.34,10.0,NW,5.8,-,N/A,,Clear,310,2013-05-03 09:55:00
5:15 AM,32.7,26.6,78,30.34,10.0,NW,5.8,-,N/A,,Clear,320,2013-05-03 10:15:00
5:35 AM,32.4,26.6,79,30.34,10.0,NW,4.6,-,N/A,,Clear,320,2013-05-03 10:35:00
5:55 AM,32.2,26.4,79,30.33,10.0,NW,5.8,-,N/A,,Clear,320,2013-05-03 10:55:00
6:15 AM,32.2,26.4,79,30.33,10.0,NW,5.8,-,N/A,,Clear,320,2013-05-03 11:15:00
6:35 AM,32.0,26.4,80,30.33,10.0,NW,5.8,-,N/A,,Clear,320,2013-05-03 11:35:00
6:55 AM,32.2,26.6,80,30.32,10.0,NNW,5.8,-,N/A,,Clear,330,2013-05-03 11:55:00
7:15 AM,33.3,26.6,77,30.32,10.0,NW,4.6,-,N/A,,Clear,320,2013-05-03 12:15:00
7:35 AM,34.7,26.8,73,30.32,10.0,NW,3.5,-,N/A,,Clear,320,2013-05-03 12:35:00
7:55 AM,36.1,27.5,71,30.32,10.0,NNW,5.8,-,N/A,,Clear,330,2013-05-03 12:55:00
8:15 AM,37.6,27.3,66,30.31,10.0,North,9.2,-,N/A,,Clear,360,2013-05-03 13:15:00
8:35 AM,38.7,27.3,64,30.30,10.0,NNE,12.7,17.3,N/A,,Clear,20,2013-05-03 13:35:00
8:55 AM,39.4,28.0,64,30.29,10.0,North,9.2,18.4,N/A,,Clear,10,2013-05-03 13:55:00
9:15 AM,40.5,26.6,58,30.29,10.0,North,9.2,-,N/A,,Clear,360,2013-05-03 14:15:00
9:35 AM,42.1,26.8,55,30.28,10.0,North,13.8,19.6,N/A,,Clear,10,2013-05-03 14:35:00
9:55 AM,43.0,26.6,52,30.27,10.0,North,11.5,17.3,N/A,,Clear,350,2013-05-03 14:55:00
10:15 AM,44.4,25.2,47,30.26,10.0,North,11.5,18.4,N/A,,Clear,360,2013-05-03 15:15:00
10:35 AM,45.5,26.6,48,30.25,10.0,North,12.7,19.6,N/A,,Clear,350,2013-05-03 15:35:00
10:55 AM,46.8,23.9,41,30.24,10.0,North,17.3,23.0,N/A,,Clear,350,2013-05-03 15:55:00
11:15 AM,47.3,22.1,37,30.24,10.0,North,17.3,23.0,N/A,,Clear,360,2013-05-03 16:15:00
11:35 AM,48.4,22.6,36,30.23,10.0,North,17.3,23.0,N/A,,Clear,360,2013-05-03 16:35:00
11:55 AM,49.3,23.4,36,30.22,10.0,North,16.1,25.3,N/A,,Clear,350,2013-05-03 16:55:00
12:15 PM,49.8,22.8,35,30.21,10.0,North,12.7,27.6,N/A,,Clear,350,2013-05-03 17:15:00
12:35 PM,51.1,20.1,30,30.20,10.0,North,16.1,27.6,N/A,,Clear,350,2013-05-03 17:35:00
12:55 PM,51.1,20.5,30,30.18,10.0,North,16.1,24.2,N/A,,Clear,360,2013-05-03 17:55:00
1:15 PM,52.2,17.6,26,30.17,10.0,North,21.9,26.5,N/A,,Clear,10,2013-05-03 18:15:00
1:35 PM,53.1,18.0,25,30.16,10.0,North,21.9,27.6,N/A,,Clear,10,2013-05-03 18:35:00
1:55 PM,53.1,19.0,26,30.15,10.0,NNW,20.7,27.6,N/A,,Clear,340,2013-05-03 18:55:00
2:15 PM,54.0,17.2,24,30.14,10.0,North,20.7,-,N/A,,Clear,360,2013-05-03 19:15:00
2:35 PM,53.8,16.3,23,30.14,10.0,North,17.3,32.2,N/A,,Clear,10,2013-05-03 19:35:00
2:55 PM,54.7,18.0,24,30.13,10.0,North,18.4,27.6,N/A,,Clear,350,2013-05-03 19:55:00
3:15 PM,54.9,18.1,24,30.12,10.0,North,16.1,27.6,N/A,,Clear,360,2013-05-03 20:15:00
3:35 PM,54.5,17.1,23,30.12,10.0,North,20.7,27.6,N/A,,Clear,360,2013-05-03 20:35:00
3:55 PM,55.2,17.1,22,30.11,10.0,North,20.7,29.9,N/A,,Clear,350,2013-05-03 20:55:00
4:15 PM,55.0,15.3,21,30.10,10.0,North,20.7,27.6,N/A,,Clear,10,2013-05-03 21:15:00
4:35 PM,55.9,17.2,22,30.09,10.0,NNE,19.6,26.5,N/A,,Clear,20,2013-05-03 21:35:00
4:55 PM,55.6,17.6,23,30.09,10.0,NNE,17.3,27.6,N/A,,Clear,20,2013-05-03 21:55:00
5:15 PM,55.8,15.6,21,30.08,10.0,North,18.4,26.5,N/A,,Clear,10,2013-05-03 22:15:00
5:35 PM,55.2,15.8,21,30.08,10.0,North,18.4,27.6,N/A,,Clear,350,2013-05-03 22:35:00
5:55 PM,55.4,17.2,22,30.07,10.0,North,13.8,24.2,N/A,,Clear,10,2013-05-03 22:55:00
6:15 PM,54.9,16.0,22,30.07,10.0,North,19.6,25.3,N/A,,Clear,10,2013-05-03 23:15:00
6:35 PM,54.5,17.2,23,30.07,10.0,North,19.6,27.6,N/A,,Clear,360,2013-05-03 23:35:00
6:55 PM,53.2,17.8,25,30.07,10.0,North,18.4,26.5,N/A,,Clear,360,2013-05-03 23:55:00
7:15 PM,52.7,17.1,25,30.06,10.0,North,16.1,24.2,N/A,,Clear,10,2013-05-04 00:15:00
7:35 PM,52.9,19.2,27,30.06,10.0,North,16.1,25.3,N/A,,Clear,360,2013-05-04 00:35:00
7:55 PM,52.0,18.7,27,30.06,10.0,North,15.0,24.2,N/A,,Scattered Clouds,10,2013-05-04 00:55:00
8:15 PM,51.3,21.7,31,30.06,10.0,North,12.7,20.7,N/A,,Scattered Clouds,10,2013-05-04 01:15:00
8:35 PM,50.0,23.0,35,30.06,10.0,North,11.5,-,N/A,,Overcast,10,2013-05-04 01:35:00
8:55 PM,49.1,23.7,37,30.06,10.0,North,10.4,-,N/A,,Overcast,10,2013-05-04 01:55:00
9:15 PM,47.7,24.4,40,30.06,10.0,North,8.1,-,N/A,,Scattered Clouds,360,2013-05-04 02:15:00
9:35 PM,46.8,25.5,43,30.06,10.0,North,6.9,-,N/A,,Clear,360,2013-05-04 02:35:00
9:55 PM,45.7,26.6,47,30.06,10.0,NNW,5.8,-,N/A,,Clear,330,2013-05-04 02:55:00
10:15 PM,45.3,26.6,48,30.06,10.0,North,9.2,-,N/A,,Clear,360,2013-05-04 03:15:00
10:35 PM,45.7,27.1,48,30.06,10.0,North,6.9,-,N/A,,Clear,350,2013-05-04 03:35:00
10:55 PM,45.7,27.7,49,30.05,10.0,North,8.1,-,N/A,,Clear,360,2013-05-04 03:55:00
11:15 PM,45.7,27.9,50,30.05,10.0,North,8.1,-,N/A,,Clear,360,2013-05-04 04:15:00
11:35 PM,46.0,27.1,48,30.04,10.0,North,9.2,-,N/A,,Clear,360,2013-05-04 04:35:00
11:55 PM,46.0,27.5,48,30.04,10.0,North,9.2,-,N/A,,Clear,360,2013-05-04 04:55:00